Theta_e
312 312 313 313 313 313 313 313 314 315 317 318 318 319 320 321 317 306 300 309 314 322 320 305 305 304 306 302 306 305 297 292 292 293 295 301 300 305 307 306 310 318 318 325 334
311 312 312 312 312 313 313 314 315 316 318 320 320 320 320 320 309 303 313 318 318 322 303 302 300 303 304 302 301 300 296 295 298 298 297 300 300 302 302 303 306 311 320 329 334
310 311 311 311 311 312 314 315 315 316 317 319 319 319 319 318 303 301 317 316 315 317 305 304 303 301 297 300 303 298 295 298 301 301 301 299 299 302 301 299 306 307 307 324 327
309 310 311 310 311 313 314 315 316 317 317 318 319 320 319 311 292 304 315 313 314 307 304 301 300 298 296 296 299 295 297 298 300 300 299 297 300 300 301 302 305 306 306 319 325
309 309 310 310 310 312 314 314 314 315 317 319 319 318 309 299 297 306 313 309 304 303 300 299 297 297 293 295 295 295 296 297 298 298 298 299 298 299 300 305 307 306 305 310 322
308 308 309 309 309 311 314 314 315 317 318 318 317 314 302 291 304 304 305 303 302 302 300 301 298 299 296 295 294 295 295 295 297 298 299 296 298 298 299 304 303 303 304 306 315
307 308 308 308 309 310 312 313 314 316 316 318 314 304 297 293 302 301 302 302 301 301 299 301 301 298 297 294 296 295 291 294 295 297 297 298 297 294 299 300 300 302 303 303 304
307 307 308 309 307 308 309 312 313 315 312 313 309 303 292 300 301 298 300 302 303 303 301 302 302 299 296 297 294 291 291 289 293 295 296 296 293 298 299 297 298 300 301 301 303
306 307 307 308 307 307 307 310 312 313 310 306 299 296 289 303 296 297 298 298 301 303 302 301 300 296 296 291 290 290 286 286 290 296 293 294 291 296 298 297 298 299 300 300 301
306 306 306 307 306 306 306 307 308 309 305 301 296 291 292 290 295 295 297 298 297 299 298 298 296 289 290 289 282 283 284 286 286 291 292 290 291 295 297 297 297 297 298 299 299
305 306 305 306 304 305 302 302 299 297 298 290 288 287 290 294 297 292 294 296 297 296 290 293 286 283 286 288 288 287 285 285 289 292 290 290 290 293 296 295 292 295 295 296 296
305 305 304 304 301 303 299 293 290 294 288 293 293 289 292 293 286 289 294 292 291 288 291 288 282 288 290 289 288 287 285 284 288 290 289 289 289 293 292 292 293 293 293 294 295
304 304 303 302 298 295 292 290 295 295 291 287 290 287 288 291 284 285 288 289 287 286 286 282 284 288 286 283 284 285 282 281 282 287 290 288 285 289 291 292 292 293 294 295 295
303 302 302 299 296 292 289 292 296 297 285 281 286 286 288 289 283 289 289 286 287 283 285 283 287 284 282 278 281 281 283 281 281 282 279 288 277 286 288 287 289 290 292 293 295
303 301 300 299 293 289 289 293 297 293 279 283 284 291 288 283 282 285 289 287 281 282 283 280 283 280 279 277 281 281 281 279 281 282 282 283 280 282 285 281 284 287 290 292 294
301 299 296 293 292 289 292 294 292 287 274 279 283 281 282 282 281 285 283 286 283 281 282 280 285 280 279 280 282 282 282 282 285 283 277 278 279 275 278 280 283 286 288 289 289
300 298 293 291 287 291 293 292 286 278 278 277 277 280 280 277 278 280 278 275 274 274 274 277 278 281 280 278 281 280 279 274 274 275 273 281 277 274 280 282 283 284 285 287 288
298 296 292 290 290 291 291 290 277 271 275 280 278 279 276 276 276 278 278 275 276 274 273 271 272 275 280 277 275 276 277 273 266 269 271 277 272 276 281 283 285 285 285 286 287
293 293 291 291 290 292 291 278 275 274 278 276 278 275 275 276 275 276 275 274 275 275 270 270 270 276 278 279 279 275 273 278 272 272 270 275 278 280 281 281 281 282 283 283 285
290 289 289 290 289 292 285 275 275 279 278 279 273 275 272 273 273 273 274 275 274 277 278 271 268 274 276 279 280 277 278 272 273 265 264 271 273 276 276 277 279 279 281 283 284
288 289 291 289 290 285 278 275 278 279 279 277 274 273 273 272 272 270 272 276 276 276 277 275 270 271 275 272 272 273 271 271 271 270 266 264 270 278 276 278 278 279 281 283 283
287 287 291 290 284 274 276 275 279 277 279 277 278 276 274 273 270 270 270 275 279 277 272 275 272 268 270 275 276 275 270 271 267 264 268 267 267 279 280 280 279 279 281 282 284
284 283 290 289 281 275 274 276 278 276 276 276 275 276 276 273 269 271 272 278 279 277 273 275 270 266 268 272 274 270 272 273 272 269 265 264 268 279 279 279 280 279 281 282 283
284 284 284 283 280 277 274 273 273 278 277 277 276 277 275 272 275 270 272 276 279 277 279 278 272 268 266 269 271 269 271 272 269 265 267 268 269 274 276 277 279 280 282 282 282
281 277 278 277 277 277 276 274 272 273 277 278 275 275 274 269 271 270 272 274 277 279 278 277 269 270 271 272 272 270 270 271 269 269 266 269 269 273 276 278 279 281 280 280 281
281 279 278 275 277 276 275 273 273 274 275 274 274 276 276 270 273 269 273 273 273 276 275 275 269 267 266 270 270 268 270 271 271 271 271 271 271 277 279 280 279 280 279 279 280
284 284 283 277 276 275 276 275 275 277 278 278 277 276 274 276 279 279 279 279 278 275 273 273 271 267 264 264 263 263 267 269 271 273 272 269 274 277 277 277 278 281 279 279 281
Wind_Speed
19 19 19 19 20 20 19 19 17 15 13 12 10 7 8 10 4 14 17 10 9 13 10 4 8 6 5 3 2 2 4 4 3 2 3 5 11 7 4 6 5 3 6 7 9
20 20 20 20 20 20 20 19 16 15 15 12 9 7 4 6 2 20 10 20 17 9 2 2 5 2 4 4 2 2 4 3 1 5 8 13 9 12 8 12 8 6 1 4 10
20 20 20 21 22 22 20 18 16 14 15 13 11 6 4 2 4 9 21 24 19 10 3 2 3 6 2 3 5 3 3 2 5 8 10 14 15 5 8 11 6 7 9 1 8
21 21 21 22 22 22 19 17 16 15 15 14 10 9 2 1 5 12 23 22 15 10 4 2 3 5 5 7 8 4 4 3 6 7 9 11 13 12 13 18 13 4 7 5 10
22 22 22 22 22 22 19 15 14 15 13 13 11 5 3 13 10 19 21 17 7 7 6 2 2 2 2 1 3 7 5 2 5 12 13 11 13 14 20 18 17 12 12 12 11
23 23 23 23 23 23 19 16 15 14 12 14 16 7 18 23 13 19 17 11 10 6 5 6 3 3 1 1 2 1 3 6 8 11 8 9 11 2 6 12 13 10 12 10 11
24 23 23 22 23 24 19 15 13 11 11 10 10 7 28 12 12 19 17 7 7 3 3 3 4 3 2 1 4 2 5 6 3 2 4 6 10 6 4 12 15 14 12 12 10
23 23 22 20 21 22 18 13 12 9 16 9 10 9 9 5 14 27 24 9 12 4 3 2 2 3 4 5 1 4 1 2 6 10 3 7 13 6 5 17 19 17 14 13 12
24 22 22 20 22 20 9 7 12 9 11 18 10 5 6 14 22 21 17 12 11 11 7 4 4 6 8 5 3 8 4 10 9 14 9 8 17 11 18 16 21 17 17 15 14
24 22 22 19 24 23 7 6 15 10 9 2 13 1 11 14 12 20 19 11 5 9 3 9 7 10 13 12 4 9 4 7 10 10 16 16 16 16 18 18 18 17 15 17 17
24 22 21 17 23 23 4 3 4 7 16 12 7 5 7 17 3 25 20 12 9 9 6 10 14 13 11 10 5 4 7 11 11 8 17 11 17 19 20 16 19 18 20 20 20
23 21 20 14 14 21 8 9 4 2 12 10 6 7 3 9 8 27 23 11 16 14 2 5 16 12 7 10 6 7 7 9 12 17 13 15 17 14 21 19 19 21 22 23 23
22 22 19 9 5 9 15 7 5 4 3 8 7 9 7 10 10 20 21 9 9 13 14 13 9 7 9 17 14 6 11 12 12 16 12 13 4 10 10 19 19 22 20 21 23
21 21 20 3 4 3 6 10 2 3 4 16 12 11 14 4 6 12 15 4 5 9 5 8 9 9 11 13 12 9 15 15 15 12 8 10 5 9 14 18 22 22 23 24 25
18 18 13 19 3 5 8 8 1 3 4 14 7 7 8 11 9 19 13 6 9 8 5 5 7 11 9 11 9 6 21 16 17 11 8 7 4 9 15 21 25 24 25 25 24
14 17 10 6 3 3 7 3 3 2 4 5 7 11 8 11 7 11 15 9 2 3 8 5 2 5 10 13 5 19 12 4 3 3 4 2 6 13 10 15 20 22 24 24 24
11 10 9 3 4 10 4 2 4 8 3 8 6 9 5 10 9 12 10 20 10 7 9 5 7 3 13 10 3 18 10 4 2 1 4 1 7 5 7 12 14 16 19 20 20
8 5 5 9 6 4 2 3 10 1 3 3 5 5 6 12 6 10 5 7 16 9 6 8 0 11 12 9 8 9 7 4 6 5 11 13 7 6 6 11 13 14 16 19 21
4 2 3 10 7 2 2 9 2 3 2 7 2 4 3 4 6 6 8 5 8 12 5 7 2 3 6 6 9 5 5 5 4 3 5 5 5 8 7 15 19 21 20 20 21
2 1 4 15 6 2 8 6 3 1 1 1 4 4 4 7 7 6 5 3 2 7 3 2 7 3 5 3 8 6 7 1 1 5 6 5 11 8 11 17 20 21 20 19 19
3 2 5 12 3 9 6 3 3 2 1 1 1 1 1 3 3 3 3 2 2 6 3 2 1 2 4 5 4 4 4 4 3 3 4 7 4 3 2 11 19 20 18 17 17
2 4 7 7 7 3 3 4 3 3 1 1 1 1 1 1 2 1 2 1 2 4 4 4 1 5 4 11 5 4 3 3 2 2 5 7 10 10 9 20 23 18 18 16 15
4 2 4 5 4 3 1 2 2 3 3 3 3 2 1 1 2 2 2 1 3 2 3 0 1 5 3 4 2 4 5 8 6 3 14 7 7 10 23 22 20 18 17 16 18
2 2 4 6 2 6 5 3 3 1 2 2 3 3 2 3 3 2 3 2 5 4 6 6 5 7 7 10 6 13 14 13 6 7 8 17 24 21 20 19 17 14 15 15 17
5 2 1 2 3 4 2 5 4 5 3 4 4 7 5 3 3 4 4 3 7 7 3 4 6 9 14 18 17 21 25 19 19 20 15 25 23 22 20 19 17 15 14 15 15
3 4 1 3 4 5 1 7 8 4 7 5 6 8 9 6 8 6 6 5 8 3 5 5 7 3 6 16 18 21 23 21 24 23 25 25 29 22 20 14 18 17 12 14 14
1 2 1 4 4 4 4 7 10 7 7 5 9 5 9 14 11 11 11 12 12 10 5 4 4 3 8 5 9 13 14 20 17 16 14 19 18 18 17 18 17 11 12 14 12
Wind_Direction
17 13 10 8 1 356 354 350 346 342 338 334 332 339 331 341 6 61 44 329 313 314 301 258 339 356 342 38 24 288 211 208 258 213 28 0 347 351 317 282 295 279 321 347 147
17 12 8 4 2 358 354 350 351 347 344 344 344 335 330 344 345 49 6 347 336 320 293 174 137 82 332 13 19 312 248 173 20 338 341 323 330 329 318 315 300 271 183 27 159
17 12 8 2 359 358 357 356 357 352 352 353 354 350 322 159 73 1 350 339 331 325 252 229 185 158 135 19 3 5 272 17 307 327 334 312 307 328 312 301 8 332 345 216 209
15 11 7 2 360 358 358 1 1 348 342 344 348 343 45 210 46 341 334 333 327 325 252 171 181 182 169 178 168 203 272 289 323 333 316 313 310 293 281 275 300 280 327 264 222
13 10 7 1 2 360 1 9 4 353 350 354 3 1 76 65 14 332 328 331 347 354 358 344 146 165 184 157 169 227 210 210 279 292 286 279 277 290 277 280 288 290 280 266 240
13 9 5 359 1 1 4 13 7 2 6 12 10 23 73 60 339 342 335 332 7 1 6 10 350 324 131 183 233 322 277 272 254 250 264 284 291 234 298 353 322 330 319 319 288
13 8 5 1 1 359 357 3 6 2 3 4 7 63 59 29 348 353 352 326 340 343 11 17 344 331 1 11 0 302 293 296 297 334 318 314 260 219 14 12 346 340 344 345 330
12 9 3 356 2 354 344 351 0 31 25 22 22 51 80 13 354 15 357 356 359 357 339 358 352 76 13 311 239 315 259 320 38 10 41 345 283 346 329 339 321 321 323 323 321
9 9 5 357 354 359 346 339 5 49 32 36 34 40 20 332 6 353 3 336 318 4 29 31 38 51 13 354 115 37 4 340 327 343 333 346 305 303 324 324 313 320 322 320 319
7 7 6 0 358 3 33 42 29 44 6 18 32 77 25 337 337 346 352 344 348 349 43 29 58 48 27 23 36 335 335 315 308 333 341 315 300 317 311 301 316 339 334 348 352
6 6 7 4 8 13 26 13 15 36 35 65 46 49 345 336 30 0 352 330 6 52 60 38 60 26 11 13 336 319 310 317 326 341 336 313 310 308 301 13 29 12 5 5 2
3 3 6 2 30 18 46 68 48 24 82 51 57 31 336 335 349 6 1 31 27 44 26 83 41 14 71 30 36 50 20 353 311 324 322 320 317 317 65 50 35 22 14 8 0
4 1 2 360 58 38 66 49 315 202 83 41 36 18 353 343 37 -0 2 340 20 45 51 67 13 22 36 31 11 57 25 340 307 316 289 334 308 28 59 47 33 25 18 14 8
5 4 2 0 61 353 53 346 323 216 93 358 359 26 350 340 65 10 2 349 56 27 17 61 17 24 33 31 358 323 351 320 303 319 315 9 297 45 359 21 18 12 9 7 5
5 10 23 34 95 46 330 326 180 228 75 349 355 323 3 55 313 11 356 11 33 16 302 51 13 18 19 357 337 326 312 286 294 295 317 21 262 3 31 1 1 3 3 0 360
1 13 13 36 56 64 325 279 224 50 44 5 354 359 11 25 23 342 11 32 65 23 49 42 23 37 337 327 350 329 308 307 171 200 230 57 337 53 15 354 350 357 0 358 356
360 28 38 29 340 327 315 218 44 67 337 344 347 351 21 5 15 10 37 45 30 358 7 337 52 35 3 341 16 360 2 348 20 338 327 304 330 46 34 22 14 4 359 359 354
8 32 39 50 328 297 223 58 64 80 308 353 339 340 44 6 39 11 37 43 33 18 29 8 1 12 2 31 317 339 347 24 312 312 306 314 259 99 63 22 15 11 1 358 356
8 9 39 352 348 281 56 51 94 196 326 330 314 25 29 32 3 19 48 56 32 15 34 349 303 329 20 5 355 350 34 337 276 238 266 240 131 194 32 18 9 3 359 360 353
60 29 29 340 339 36 65 107 143 219 328 307 30 15 337 349 13 31 36 31 56 24 334 62 290 40 330 322 42 29 355 206 41 296 287 265 291 263 16 8 2 359 356 347 349
54 63 352 346 1 49 75 117 149 149 250 4 152 321 40 341 2 18 19 118 26 20 50 90 330 328 300 37 358 21 32 20 295 270 286 301 264 133 343 355 353 347 344 339 340
55 58 355 333 52 40 87 163 148 150 157 139 136 168 250 331 314 328 321 181 136 31 32 32 301 285 302 318 273 323 43 44 308 298 267 278 274 283 310 328 329 327 330 330 329
56 345 352 325 93 87 158 128 178 153 175 169 173 211 180 224 303 242 253 189 159 46 26 62 243 301 189 122 147 272 296 300 307 262 246 260 255 328 319 313 316 316 321 324 323
82 57 7 44 44 119 143 156 161 186 186 191 170 159 157 233 222 258 236 267 171 216 291 189 223 228 264 298 308 288 277 276 235 253 272 245 282 296 303 319 325 308 311 318 323
17 84 357 72 76 111 122 148 151 185 222 197 201 211 183 195 225 232 246 261 268 280 254 200 251 251 251 270 279 278 278 271 251 243 254 278 287 285 293 305 307 304 310 323 323
118 142 77 122 127 128 202 205 180 188 173 216 222 204 196 193 206 207 215 247 258 256 177 185 266 325 271 267 275 281 273 265 258 259 257 260 269 277 278 296 306 294 303 317 319
133 95 135 145 149 168 207 180 199 176 216 214 207 215 223 233 246 258 262 258 247 231 225 228 253 265 286 335 310 273 256 249 246 247 250 251 274 306 294 306 311 306 294 306 310